Macon, GA

9:24 AM EDT on April 22, 2018 (GMT -0400)
Middle Georgia Regional

Weather History for KMCN - August, 2013

Change the Weather History Date:

Friday, August 23, 2013

  Actual Average Record
Temperature  
Mean Temperature 80 °F 80 °F  
Max Temperature 90 °F 91 °F 104 °F (1968)
Min Temperature 69 °F 70 °F 59 °F (1930)
Degree Days  
Heating Degree Days 0 0  
Month to date heating degree days 0 0  
Since 1 June heating degree days 0 0  
Since 1 July heating degree days 0 0  
Cooling Degree Days 15 15  
Month to date cooling degree days 323 375  
Year to date cooling degree days 1378 1628  
Since 1 June cooling degree days 1168 1315  
Growing Degree Days 30 (Base 50)    
Moisture  
Dew Point 70 °F    
Average Humidity 76    
Maximum Humidity 100    
Minimum Humidity 52    
Precipitation  
Precipitation 2.15 in 0.14 in 2.14 in (2013)
Month to date precipitation 10.20 3.03  
Year to date precipitation 58.13 30.87  
Sea Level Pressure  
Sea Level Pressure 30.04 in    
Wind  
Wind Speed 3 mph (WSW)    
Max Wind Speed 28 mph    
Max Gust Speed 39 mph    
Visibility 6 miles    
Events Fog , Rain , Thunderstorm    
T = Trace of Precipitation, MM = Missing Value Source: NWS Daily Summary

Daily Weather History Graph

Daily Weather History Graph

Search for Another Location

Airport or City:

Astronomy

Aug. 23, 2013 Rise Set
Actual Time 7:03 AM EDT 8:10 PM EDT
Civil Twilight 6:38 AM EDT 8:35 PM EDT
Nautical Twilight 6:07 AM EDT 9:05 PM EDT
Astronomical Twilight 5:36 AM EDT 9:37 PM EDT
Moon 9:42 PM EDT (8/23) 9:44 AM EDT (8/23)
Length of Visible Light 13h 57m
Length of Day
13h 06m
Waning Gibbous, 91% of the Moon is Illuminated
Aug 23
Waning Gibbous
Aug 28
Last Quarter
Sep 5
New
Sep 12
First Quarter
Sep 19
Full

Hourly Weather History & Observations

Time (EDT) Temp. Heat Index Dew Point Humidity Pressure Visibility Wind Dir Wind Speed Gust Speed Precip Events Conditions
12:53 AM 72.0 °F - 71.1 °F 97% 30.07 in 10.0 mi Calm Calm - N/A   Clear
1:53 AM 71.1 °F - 70.0 °F 96% 30.06 in 10.0 mi Calm Calm - N/A   Clear
2:53 AM 71.1 °F - 70.0 °F 96% 30.04 in 10.0 mi Calm Calm - N/A   Clear
3:35 AM 69.8 °F - 69.8 °F 100% 30.06 in 10.0 mi SSE 4.6 mph - N/A   Scattered Clouds
3:53 AM 70.0 °F - 70.0 °F 100% 30.04 in 10.0 mi Calm Calm - N/A   Partly Cloudy
4:53 AM 70.0 °F - 70.0 °F 100% 30.03 in 6.0 mi Calm Calm - N/A   Mostly Cloudy
5:06 AM 69.8 °F - 69.8 °F 100% 30.04 in 10.0 mi Calm Calm - N/A   Mostly Cloudy
5:53 AM 70.0 °F - 69.1 °F 97% 30.04 in 10.0 mi Calm Calm - N/A   Partly Cloudy
6:53 AM 69.1 °F - 69.1 °F 100% 30.04 in 2.5 mi Calm Calm - 0.01 in   Mostly Cloudy
6:57 AM 69.8 °F - 69.8 °F 100% 30.06 in 1.0 mi South 3.5 mph - N/A   Mist
7:04 AM 69.8 °F - 69.8 °F 100% 30.06 in 0.5 mi SSW 3.5 mph - N/A Fog Fog
7:26 AM 69.8 °F - 69.8 °F 100% 30.06 in 2.0 mi Calm Calm - N/A   Overcast
7:36 AM 69.8 °F - 69.8 °F 100% 30.07 in 1.0 mi Calm Calm - N/A   Overcast
7:53 AM 70.0 °F - 70.0 °F 100% 30.06 in 1.0 mi Calm Calm - N/A   Mostly Cloudy
8:21 AM 69.8 °F - 69.8 °F 100% 30.08 in 2.0 mi Calm Calm - N/A   Scattered Clouds
8:46 AM 71.6 °F - 71.6 °F 100% 30.09 in 1.5 mi North 4.6 mph - N/A   Mist
8:53 AM 72.0 °F - 71.1 °F 97% 30.08 in 1.5 mi North 3.5 mph - N/A   Mist
9:16 AM 73.4 °F - 71.6 °F 94% 30.08 in 2.0 mi Calm Calm - N/A   Mostly Cloudy
9:27 AM 75.2 °F - 73.4 °F 94% 30.08 in 4.0 mi Calm Calm - N/A   Scattered Clouds
9:53 AM 78.1 °F - 73.0 °F 84% 30.08 in 10.0 mi Variable 3.5 mph - N/A   Clear
10:53 AM 82.9 °F 87.0 °F 70.0 °F 65% 30.08 in 10.0 mi Variable 3.5 mph - N/A   Clear
11:53 AM 84.9 °F 88.2 °F 68.0 °F 57% 30.07 in 10.0 mi Calm Calm - N/A   Clear
12:53 PM 87.1 °F 91.3 °F 69.1 °F 55% 30.05 in 10.0 mi North 8.1 mph - N/A   Clear
1:53 PM 87.1 °F 92.8 °F 71.1 °F 59% 30.02 in 10.0 mi NW 4.6 mph - N/A   Scattered Clouds
2:53 PM 89.1 °F 95.0 °F 71.1 °F 55% 30.00 in 10.0 mi Calm Calm - N/A   Scattered Clouds
3:53 PM 87.1 °F 92.8 °F 71.1 °F 59% 29.97 in 10.0 mi ESE 4.6 mph - N/A   Scattered Clouds
4:53 PM 90.0 °F 95.4 °F 70.0 °F 52% 29.97 in 10.0 mi SSW 6.9 mph - N/A   Clear
5:53 PM 84.9 °F 92.1 °F 73.9 °F 69% 29.96 in 10.0 mi SSE 4.6 mph - 0.00 in Rain Light Rain
6:00 PM 86.0 °F 93.4 °F 73.4 °F 66% 29.98 in 10.0 mi Calm Calm - 0.00 in Thunderstorm Thunderstorm
6:53 PM 77.0 °F - 75.0 °F 94% 29.98 in 9.0 mi Calm Calm - 0.09 in Rain , Thunderstorm Light Thunderstorms and Rain
7:16 PM 73.4 °F - 71.6 °F 94% 30.04 in 2.5 mi NNE 20.7 mph 28.8 mph 0.05 in Rain , Thunderstorm Heavy Thunderstorms and Rain
7:22 PM 73.4 °F - 71.6 °F 94% 30.06 in 0.8 mi North 15.0 mph 28.8 mph 0.20 in Rain , Thunderstorm Heavy Thunderstorms and Rain
7:28 PM 71.6 °F - 69.8 °F 94% 30.07 in 0.5 mi WSW 25.3 mph 39.1 mph 0.67 in Fog , Rain , Thunderstorm Heavy Thunderstorms and Rain
7:33 PM 71.6 °F - 66.2 °F 83% 30.06 in 0.5 mi ENE 9.2 mph 39.1 mph 1.02 in Fog , Rain , Thunderstorm Heavy Thunderstorms and Rain
7:43 PM 71.6 °F - 68.0 °F 88% 30.03 in 0.8 mi South 10.4 mph 33.4 mph 1.79 in Rain , Thunderstorm Heavy Thunderstorms and Rain
7:51 PM 71.6 °F - 68.0 °F 88% 30.04 in 1.8 mi Variable 4.6 mph 17.3 mph 1.91 in Rain , Thunderstorm Heavy Thunderstorms and Rain
7:53 PM 71.1 °F - 69.1 °F 93% 30.03 in 2.0 mi WSW 3.5 mph - 1.93 in Rain , Thunderstorm Heavy Thunderstorms and Rain
8:00 PM 71.6 °F - 69.8 °F 94% 30.05 in 3.0 mi West 6.9 mph - 0.00 in Rain , Thunderstorm Light Thunderstorms and Rain
8:08 PM 71.6 °F - 69.8 °F 94% 30.04 in 1.8 mi West 6.9 mph - 0.07 in Rain , Thunderstorm Heavy Thunderstorms and Rain
8:15 PM 71.6 °F - 69.8 °F 94% 30.05 in 2.5 mi WNW 9.2 mph - 0.10 in Rain Rain
8:22 PM 71.6 °F - 69.8 °F 94% 30.04 in 6.0 mi NW 8.1 mph - 0.11 in Rain Light Rain
8:53 PM 71.1 °F - 69.1 °F 93% 30.03 in 10.0 mi West 10.4 mph - 0.12 in   Mostly Cloudy
9:51 PM 71.6 °F - 69.8 °F 94% 30.08 in 10.0 mi East 9.2 mph - N/A   Overcast
9:53 PM 72.0 °F - 70.0 °F 93% 30.07 in 10.0 mi East 13.8 mph - N/A   Overcast
10:53 PM 71.1 °F - 66.9 °F 87% 30.06 in 10.0 mi SSE 5.8 mph 16.1 mph N/A   Scattered Clouds
11:53 PM 70.0 °F - 68.0 °F 93% 30.04 in 10.0 mi Calm Calm - N/A   Clear